Location: Newark
(21.1200°N, 73.4000°E)
Time: 01:08:51
(UTC+00:00)

Vanguard 1 Rocket - Pass Details

Date: 19 January 2021
Orbit: 654 x 4223 km, 34.3° (Epoch: 06 March)

Event Time Altitude Azimuth Distance (km) Brightness Sun altitude
Rises 13:44:39 0° 297° (WNW) 3,691 11.3 -13.2°
Reaches altitude 10° 13:46:43 10° 296° (WNW) 2,978 10.7 -13.7°
Maximum altitude 13:54:04 80° 210° (SSW) 1,682 8.7 -15.3°
Drops below altitude 10° 14:09:02 10° 126° (SE) 5,681 11.1 -18.7°
Sets 14:14:40 0° 125° (SE) 7,243 11.6 -20.0°
